�N����,����,�g�[���i���ԁj���x,�g�[�����x,��g�[���i���ցj���x,����
 2003/02/01, 0:00,20.5,35,5.3,6.8
 2003/02/01, 0:15,16.1,45,5.3,6.9
 2003/02/01, 0:30,13.3,51,5.3,7
 2003/02/01, 0:45,12.4,53.5,5.3,7
 2003/02/01, 1:00,11.2,51,5.6,6.3
 2003/02/01, 1:15,10.5,52.5,5.8,6.6
 2003/02/01, 1:30,10,54,5.8,6.6
 2003/02/01, 1:45,9.6,55,5.9,6.6
 2003/02/01, 2:00,9.4,55,5.9,6.6
 2003/02/01, 2:15,9.2,56,5.8,6.6
 2003/02/01, 2:30,9,57,5.8,6.6
 2003/02/01, 2:45,8.8,57,5.7,6.6
 2003/02/01, 3:00,8.6,58,5.7,6.6
 2003/02/01, 3:15,8.4,58,5.7,6.6
 2003/02/01, 3:30,8.3,59,5.7,6.6
 2003/02/01, 3:45,8.4,59,5.6,6.6
 2003/02/01, 4:00,8.4,59,5.4,6.6
 2003/02/01, 4:15,8.3,59,5.3,6.6
 2003/02/01, 4:30,8.3,59,5.2,6.6
 2003/02/01, 4:45,8.2,59,5.2,6.6
 2003/02/01, 5:00,8.1,60,5.2,6.6
 2003/02/01, 5:15,8,60,5.2,6.6
 2003/02/01, 5:30,8,60,5,6.7
 2003/02/01, 5:45,7.9,60.5,5,6.7
 2003/02/01, 6:00,7.8,62,4.9,6.6
 2003/02/01, 6:15,7.8,62,4.9,6.6
 2003/02/01, 6:30,7.7,62,4.9,6.6
 2003/02/01, 6:45,7.7,62,4.8,6.7
 2003/02/01, 7:00,7.7,62,4.8,6.6
 2003/02/01, 7:15,11.2,52,4.8,6.6
 2003/02/01, 7:30,15.3,43,4.8,6.6
 2003/02/01, 7:45,15.3,42,4.8,6.4
 2003/02/01, 8:00,12.4,52,5,6.5
 2003/02/01, 8:15,15.1,46,5,6.7
 2003/02/01, 8:30,12.2,54,5,6.8
 2003/02/01, 8:45,12.1,57,4.9,6.8
 2003/02/01, 9:00,12.1,58,5.1,6.8
 2003/02/01, 9:15,11.9,57.5,5.1,6.8
 2003/02/01, 9:30,11.7,58,5.1,6.7
 2003/02/01, 9:45,11.8,58.5,5.1,6.7
 2003/02/01,10:00,11.8,58,5,6.7
 2003/02/01,10:15,11.9,57.5,5.3,6.7
 2003/02/01,10:30,12,57,5.4,6.7
 2003/02/01,10:45,12,59,5.4,6.7
 2003/02/01,11:00,12,60,5.5,6.7
 2003/02/01,11:15,12.1,59,5.7,6.6
 2003/02/01,11:30,12.2,60,5.7,6.6
 2003/02/01,11:45,12.3,60.5,5.5,6.6
 2003/02/01,12:00,12.4,61,5.6,6.4
 2003/02/01,12:15,12.6,61,5.7,6.5
 2003/02/01,12:30,12.7,60,5.7,6.5
 2003/02/01,12:45,12.8,60.5,5.8,6.5
 2003/02/01,13:00,12.7,60,5.8,6.5
 2003/02/01,13:15,12.8,60,5.8,6.4
 2003/02/01,13:30,13,59,5.8,6.5
 2003/02/01,13:45,12.8,58.5,5.8,6.6
 2003/02/01,14:00,12.7,58,5.7,6.6
 2003/02/01,14:15,12.7,58,5.8,6.6
 2003/02/01,14:30,12.8,57,5.7,6.6
 2003/02/01,14:45,12.8,57,5.8,6.4
 2003/02/01,15:00,12.7,57,5.8,6.3
 2003/02/01,15:15,12.7,56.5,5.8,6.2
 2003/02/01,15:30,12.7,56,5.7,6.3
 2003/02/01,15:45,12.9,56,5.9,6.5
 2003/02/01,16:00,12.9,56,5.9,6.5
 2003/02/01,16:15,12.8,55,5.8,6.5
 2003/02/01,16:30,12.8,55,5.7,6.5
 2003/02/01,16:45,12.7,55,5.7,6.5
 2003/02/01,17:00,12.6,55,5.7,6.5
 2003/02/01,17:15,12.6,54,5.6,6.5
 2003/02/01,17:30,12.3,54,5.5,6.5
 2003/02/01,17:45,12.4,54.5,5.3,6.4
 2003/02/01,18:00,12.4,57,5.3,6.4
 2003/02/01,18:15,12.4,55,5.2,6.4
 2003/02/01,18:30,12.4,55,5.2,6.4
 2003/02/01,18:45,13.4,64,5.2,6.4
 2003/02/01,19:00,13.3,67,5.2,6.5
 2003/02/01,19:15,14.1,75.5,5.2,6.5
 2003/02/01,19:30,13.5,71,5.2,6.4
 2003/02/01,19:45,13.2,67,5.1,6.4
 2003/02/01,20:00,13.1,65,5,6.4
 2003/02/01,20:15,13.1,62.5,5,6.4
 2003/02/01,20:30,13.1,61,5,6.4
 2003/02/01,20:45,13,60,5,6.4
 2003/02/01,21:00,12.9,59,5,6.4
 2003/02/01,21:15,12.1,61,4.9,6
 2003/02/01,21:30,11.5,63,4.9,6
 2003/02/01,21:45,11.1,63.5,4.9,6
 2003/02/01,22:00,10.9,65,4.9,6
 2003/02/01,22:15,10.6,65,4.8,6
 2003/02/01,22:30,10.4,65,4.8,6
 2003/02/01,22:45,10.2,65,4.8,6
 2003/02/01,23:00,10.4,64,4.8,6
 2003/02/01,23:15,16.1,46,4.9,6.4
 2003/02/01,23:30,17.7,43,4.8,6.4
 2003/02/01,23:45,18.5,41.5,4.8,6.4
 2003/02/02, 0:00,19.1,41,4.8,6.5
 2003/02/02, 0:15,19.5,41,4.7,6.5
 2003/02/02, 0:30,17.4,46,4.8,6.5
 2003/02/02, 0:45,13.6,54,4.8,6.5
 2003/02/02, 1:00,12.2,57,4.7,6.7
 2003/02/02, 1:15,11.6,58.5,4.7,6.7
 2003/02/02, 1:30,11,60,4.7,6.7
 2003/02/02, 1:45,10.6,61,4.7,6.7
 2003/02/02, 2:00,10.2,62,4.6,6.6
 2003/02/02, 2:15,9.9,62.5,4.6,6.6
 2003/02/02, 2:30,9.8,62,4.6,6.6
 2003/02/02, 2:45,9.4,63,4.5,6.6
 2003/02/02, 3:00,9.2,63,4.5,6.6
 2003/02/02, 3:15,9.1,64,4.4,6.6
 2003/02/02, 3:30,8.8,64,4.4,6.6
 2003/02/02, 3:45,8.6,64,4.4,6.6
 2003/02/02, 4:00,8.5,65,4.4,6.6
 2003/02/02, 4:15,8.4,65,4.4,6.6
 2003/02/02, 4:30,8.3,65,4.4,6.5
 2003/02/02, 4:45,8.1,65,4.3,6.5
 2003/02/02, 5:00,8.1,65,4.4,6.5
 2003/02/02, 5:15,8,65,4.3,6.5
 2003/02/02, 5:30,7.8,66,4.3,6.5
 2003/02/02, 5:45,7.8,65.5,4.2,6.5
 2003/02/02, 6:00,7.8,67,4.2,6.5
 2003/02/02, 6:15,7.7,67,4.2,6.5
 2003/02/02, 6:30,7.5,67,4.2,6.5
 2003/02/02, 6:45,13.8,48,4.2,6.8
 2003/02/02, 7:00,16.1,42,4.2,6.9
 2003/02/02, 7:15,16.6,40.5,4.2,6.8
 2003/02/02, 7:30,16.1,39,4.2,6.8
 2003/02/02, 7:45,16.6,40,4.2,6.5
 2003/02/02, 8:00,13.7,52,4.4,6.3
 2003/02/02, 8:15,17,42,4.5,6.4
 2003/02/02, 8:30,13.5,51,4.5,6.4
 2003/02/02, 8:45,12.3,54.5,4.7,6.4
 2003/02/02, 9:00,12,55,4.8,6.1
 2003/02/02, 9:15,11.7,55,4.8,6.6
 2003/02/02, 9:30,11.6,54,4.8,6.6
 2003/02/02, 9:45,11.6,54,4.8,6.6
 2003/02/02,10:00,11.6,55,5,6.6
 2003/02/02,10:15,11.6,55.5,5.2,6.4
 2003/02/02,10:30,11.8,56,5.3,6.2
 2003/02/02,10:45,11.8,56,5.3,6
 2003/02/02,11:00,11.9,56,5.3,6.1
 2003/02/02,11:15,11.9,55.5,5.3,6.1
 2003/02/02,11:30,11.9,55,5.5,6.1
 2003/02/02,11:45,12.1,56.5,5.4,6.1
 2003/02/02,12:00,12,64,5.5,6.1
 2003/02/02,12:15,12.1,65.5,5.6,6.1
 2003/02/02,12:30,12.4,63,5.8,6.4
 2003/02/02,12:45,12.4,63,5.7,6.4
 2003/02/02,13:00,12.5,62,5.7,6.4
 2003/02/02,13:15,12.6,60.5,5.7,6.4
 2003/02/02,13:30,12.8,60,5.7,6.4
 2003/02/02,13:45,12.8,59,5.8,6.4
 2003/02/02,14:00,12.7,59,5.7,6.4
 2003/02/02,14:15,12.8,58.5,5.8,6.1
 2003/02/02,14:30,12.9,57,5.7,6.4
 2003/02/02,14:45,12.9,56.5,5.8,6.4
 2003/02/02,15:00,13.5,55,5.9,6.4
 2003/02/02,15:15,13.4,55,5.9,6.4
 2003/02/02,15:30,13.3,55,5.9,6.4
 2003/02/02,15:45,13.2,55,5.9,6.4
 2003/02/02,16:00,13.1,55,5.8,6.4
 2003/02/02,16:15,12.9,54,5.8,6.4
 2003/02/02,16:30,12.4,52,6.2,6.2
 2003/02/02,16:45,12.6,53,5.9,6.2
 2003/02/02,17:00,12.7,54,5.8,6.2
 2003/02/02,17:15,12.6,54,5.8,6.2
 2003/02/02,17:30,12.6,54,5.8,6.2
 2003/02/02,17:45,12.5,53,5.7,6.2
 2003/02/02,18:00,11.9,50,5.6,6.3
 2003/02/02,18:15,11.6,49.5,5.5,6.3
 2003/02/02,18:30,11.5,48,5.5,6.3
 2003/02/02,18:45,11.6,52,5.4,6.2
 2003/02/02,19:00,12.4,63,5.3,6.4
 2003/02/02,19:15,12.5,59.5,5.3,6.4
 2003/02/02,19:30,12.6,58,5.3,6.4
 2003/02/02,19:45,12.6,57.5,5.3,6.4
 2003/02/02,20:00,12.5,56,5.3,6.4
 2003/02/02,20:15,12.4,55,5.3,6.4
 2003/02/02,20:30,12.4,54,5.3,6.1
 2003/02/02,20:45,12.5,56.5,5.2,6.2
 2003/02/02,21:00,12.6,58,5.2,6.3
 2003/02/02,21:15,11.9,60.5,5.2,6.3
 2003/02/02,21:30,11.2,63,5.2,6.3
 2003/02/02,21:45,10.9,63.5,5.2,6.3
 2003/02/02,22:00,10.7,64,5.1,6.3
 2003/02/02,22:15,10.4,64.5,5.1,6.3
 2003/02/02,22:30,10.4,64,5.1,6.3
 2003/02/02,22:45,10.2,63,5.2,6.9
 2003/02/02,23:00,14.9,49,5.1,6.9
 2003/02/02,23:15,17.7,45.5,5.1,6.4
 2003/02/02,23:30,18.6,43,5,6.4
 2003/02/02,23:45,17.1,45.5,5.1,6.4
 2003/02/03, 0:00,13,54,5,6.6
 2003/02/03, 0:15,11.8,58,5.1,6.6
 2003/02/03, 0:30,11,60,5,6.6
 2003/02/03, 0:45,10.6,60.5,5,6.6
 2003/02/03, 1:00,10.1,62,5,6.6
 2003/02/03, 1:15,9.8,62,5,6.6
 2003/02/03, 1:30,9.6,62,5,6.5
 2003/02/03, 1:45,9.4,62,5,6.5
 2003/02/03, 2:00,9.1,63,5,6.5
 2003/02/03, 2:15,8.9,62,4.9,6.5
 2003/02/03, 2:30,8.8,63,4.8,6.5
 2003/02/03, 2:45,8.6,63,4.8,6.5
 2003/02/03, 3:00,8.5,63,4.8,6.5
 2003/02/03, 3:15,8.4,63,4.8,6.5
 2003/02/03, 3:30,8.2,63,4.8,6.5
 2003/02/03, 3:45,8.1,63,4.8,6.5
 2003/02/03, 4:00,8,63,4.7,6.5
 2003/02/03, 4:15,7.9,63,4.6,6.5
 2003/02/03, 4:30,7.8,63,4.6,6.5
 2003/02/03, 4:45,7.8,63,4.6,6.5
 2003/02/03, 5:00,7.7,64,4.6,6.5
 2003/02/03, 5:15,7.6,64,4.6,6.5
 2003/02/03, 5:30,7.5,64,4.6,6.5
 2003/02/03, 5:45,7.4,64,4.6,6.9
 2003/02/03, 6:00,7.5,65,4.5,6.9
 2003/02/03, 6:15,7.3,65.5,4.6,6.9
 2003/02/03, 6:30,7.6,66,4.6,6.9
 2003/02/03, 6:45,14.6,44.5,4.6,6.7
 2003/02/03, 7:00,16.2,41,4.6,6.7
 2003/02/03, 7:15,15.5,42,4.6,6.6
 2003/02/03, 7:30,15.2,42,4.5,6.4
 2003/02/03, 7:45,16.2,40.5,4.7,6.4
 2003/02/03, 8:00,12.9,51,4.8,6.4
 2003/02/03, 8:15,11.9,55,4.9,6.3
 2003/02/03, 8:30,11.7,54,5.7,6.6
 2003/02/03, 8:45,11.8,54,5.6,6.6
 2003/02/03, 9:00,11.6,55,5.3,6.6
 2003/02/03, 9:15,11.6,54.5,5.4,6.6
 2003/02/03, 9:30,11.7,53,5.7,6.6
 2003/02/03, 9:45,11.9,54,5.8,6.6
 2003/02/03,10:00,12.1,54,5.9,6.6
 2003/02/03,10:15,12.1,54,6,6.6
 2003/02/03,10:30,12,54,6.1,6.6
 2003/02/03,10:45,12.1,53,6.2,6.6
 2003/02/03,11:00,12,54,6.4,6.6
 2003/02/03,11:15,12.1,55,6.3,6.7
 2003/02/03,11:30,12.1,54,6.2,6.7
 2003/02/03,11:45,12.2,54,6.7,6.3
 2003/02/03,12:00,12.4,54,6.5,6.5
 2003/02/03,12:15,12.3,54,6.5,6.5
 2003/02/03,12:30,12.4,54,6.5,6.5
 2003/02/03,12:45,12.8,55.5,6.4,6.6
 2003/02/03,13:00,12.8,56,6.4,6.6
 2003/02/03,13:15,12.7,57,6.4,6.7
 2003/02/03,13:30,12.9,58,6.4,6.7
 2003/02/03,13:45,12.8,54,6.8,6.6
 2003/02/03,14:00,13.1,56,6.6,6.6
 2003/02/03,14:15,13,57.5,6.6,6.6
 2003/02/03,14:30,13,57,6.6,6.7
 2003/02/03,14:45,12.4,58.5,6.7,6.7
 2003/02/03,15:00,11.8,60,6.7,6.7
 2003/02/03,15:15,11.8,60,6.5,6.7
 2003/02/03,15:30,12.1,60,6.6,6.7
 2003/02/03,15:45,11.6,60.5,6.7,6.7
 2003/02/03,16:00,11.6,61,6.7,6.7
 2003/02/03,16:15,11.6,61,6.7,6.8
 2003/02/03,16:30,11.2,62,6.7,6.8
 2003/02/03,16:45,11.2,62,6.7,6.8
 2003/02/03,17:00,11.1,63,6.7,7
 2003/02/03,17:15,11.4,62.5,6.6,7
 2003/02/03,17:30,11.9,61,6.5,7
 2003/02/03,17:45,12.4,58.5,6.4,7
 2003/02/03,18:00,12.6,58,6.4,6.7
 2003/02/03,18:15,12.9,59,6.3,6.7
 2003/02/03,18:30,12.3,55,6.3,6.9
 2003/02/03,18:45,12.1,53.5,6.2,7
 2003/02/03,19:00,11.8,51,6.2,7
 2003/02/03,19:15,12.4,54,6.1,7
 2003/02/03,19:30,12.9,56,6,7
 2003/02/03,19:45,13.1,56,6,7
 2003/02/03,20:00,13.1,60,6.1,6.7
 2003/02/03,20:15,13.1,59,6,6.5
 2003/02/03,20:30,13.1,58,5.9,6.5
 2003/02/03,20:45,13.1,58,5.9,6.5
 2003/02/03,21:00,13.1,57,5.9,6.5
 2003/02/03,21:15,13.1,57,5.8,6.5
 2003/02/03,21:30,13,57,5.7,6.5
 2003/02/03,21:45,12.5,58,5.7,6.5
 2003/02/03,22:00,11.8,61,5.6,6.5
 2003/02/03,22:15,11.3,60.5,5.6,6.5
 2003/02/03,22:30,11,61,5.6,6.4
 2003/02/03,22:45,10.7,61.5,5.5,6.4
 2003/02/03,23:00,10.5,63,5.5,6.4
 2003/02/03,23:15,10.4,63.5,5.5,6.4
 2003/02/03,23:30,10.2,64,5.4,6.4
 2003/02/03,23:45,13.1,55.5,5.4,6.4
 2003/02/04, 0:00,17.5,45,5.3,6.6
 2003/02/04, 0:15,16.6,47.5,5.3,6.6
 2003/02/04, 0:30,12.7,56,5.3,6.2
 2003/02/04, 0:45,11.5,59.5,5.3,6.5
 2003/02/04, 1:00,10.8,61,5.3,6.5
 2003/02/04, 1:15,10.4,62,5.2,6.5
 2003/02/04, 1:30,10.1,63,5.2,6.6
 2003/02/04, 1:45,9.8,63,5.2,6.6
 2003/02/04, 2:00,9.5,64,5.2,6.6
 2003/02/04, 2:15,9.3,64,5.2,6.6
 2003/02/04, 2:30,9.1,64,5.2,6.6
 2003/02/04, 2:45,8.9,64.5,5.2,6.6
 2003/02/04, 3:00,8.8,65,5.1,6.6
 2003/02/04, 3:15,8.6,65,5.1,6.6
 2003/02/04, 3:30,8.6,65,5.1,6.6
 2003/02/04, 3:45,8.4,65.5,5,6.6
 2003/02/04, 4:00,8.2,65,5,6.6
 2003/02/04, 4:15,8.1,65,4.9,6.6
 2003/02/04, 4:30,8.1,65,4.9,6.6
 2003/02/04, 4:45,7.9,65,4.8,6.6
 2003/02/04, 5:00,7.8,66,4.8,6.6
 2003/02/04, 5:15,7.7,66,4.8,6.6
 2003/02/04, 5:30,7.6,66,4.7,6.6
 2003/02/04, 5:45,7.6,66,4.6,6.6
 2003/02/04, 6:00,7.6,67,4.6,6.6
 2003/02/04, 6:15,7.4,67,4.4,6.6
 2003/02/04, 6:30,7.3,67,4.4,6.6
 2003/02/04, 6:45,7.2,67,4.4,6.5
 2003/02/04, 7:00,7.1,67,4.3,6.5
 2003/02/04, 7:15,8.4,63,4.4,6.5
 2003/02/04, 7:30,12.9,48,4.1,6.5
 2003/02/04, 7:45,14.5,44,4,6.4
 2003/02/04, 8:00,16.3,43,4.4,-9.9
 2003/02/04, 8:15,13.8,51.5,4.5,-9.9
 2003/02/04, 8:30,12.4,58,4.7,-9.9
 2003/02/04, 8:45,12.5,58,5.2,-9.9
 2003/02/04, 9:00,12.3,59,5.5,-9.9
 2003/02/04, 9:15,12.1,53.5,6.1,-9.9
 2003/02/04, 9:30,13.4,62,6.3,-9.9
 2003/02/04, 9:45,13.4,59.5,6.3,-9.9
 2003/02/04,10:00,13.1,62,6.4,-9.9
 2003/02/04,10:15,12.8,60.5,6.5,-9.9
 2003/02/04,10:30,12.6,60,6.4,-9.9
 2003/02/04,10:45,12.6,59,6.3,-9.9
 2003/02/04,11:00,12.6,59,6.5,-9.9
 2003/02/04,11:15,12.6,59,6.6,-9.9
 2003/02/04,11:30,12.5,58,6.7,-9.9
 2003/02/04,11:45,12.7,57.5,6.8,-9.9
 2003/02/04,12:00,12.7,56,6.9,-9.9
 2003/02/04,12:15,12.9,56,6.8,-9.9
 2003/02/04,12:30,13.1,56,6.8,-9.9
 2003/02/04,12:45,13.4,56,7,-9.9
 2003/02/04,13:00,13.8,56,7,-9.9
 2003/02/04,13:15,14,56,6.9,-9.9
 2003/02/04,13:30,14.1,56,7,-9.9
 2003/02/04,13:45,13.9,54.5,7.4,-9.9
 2003/02/04,14:00,13.1,54,7.6,-9.9
 2003/02/04,14:15,13,55,7.3,-9.9
 2003/02/04,14:30,13.2,56,7.6,-9.9
 2003/02/04,14:45,13.4,58,7.6,-9.9
 2003/02/04,15:00,12.9,57,8.3,-9.9
 2003/02/04,15:15,12.8,56.5,7.8,-9.9
 2003/02/04,15:30,12.9,57,7.7,-9.9
 2003/02/04,15:45,12.7,57.5,7.7,-9.9
 2003/02/04,16:00,12.7,59,7.6,-9.9
 2003/02/04,16:15,12.6,59,7.5,-9.9
 2003/02/04,16:30,12.7,60,7.4,-9.9
 2003/02/04,16:45,12.6,59.5,7.4,24.5
 2003/02/04,17:00,12.9,61,7.4,24.3
 2003/02/04,17:15,13.2,59.5,7.3,23.7
 2003/02/04,17:30,13.6,58,7.1,22.5
 2003/02/04,17:45,13.4,60,7.1,22
 2003/02/04,18:00,13.5,61,7,22
 2003/02/04,18:15,13.2,61,6.9,21.7
 2003/02/04,18:30,12.6,55,6.8,20.3
 2003/02/04,18:45,12.6,53,6.7,19.4
 2003/02/04,19:00,13.4,54,6.6,19
 2003/02/04,19:15,13.6,55.5,6.5,18.8
 2003/02/04,19:30,13.8,58,6.4,18.6
 2003/02/04,19:45,13.7,58.5,6.4,18.5
 2003/02/04,20:00,13.5,56,6.2,18.5
 2003/02/04,20:15,13.4,57.5,6.2,19
 2003/02/04,20:30,12.7,59,6.2,19.2
 2003/02/04,20:45,12.1,62,6.2,19.2
 2003/02/04,21:00,11.7,63,6.1,19.3
 2003/02/04,21:15,11.5,63.5,6.1,19.1
 2003/02/04,21:30,11.3,64,5.9,19
 2003/02/04,21:45,11.1,64,5.9,19
 2003/02/04,22:00,11.1,64,5.8,18.9
 2003/02/04,22:15,10.8,64,5.8,19
 2003/02/04,22:30,10.7,64,5.7,18.6
 2003/02/04,22:45,10.5,65,5.6,18.5
 2003/02/04,23:00,10.4,65,5.5,18.6
 2003/02/04,23:15,10.3,65.5,5.5,17.9
 2003/02/04,23:30,15.2,49,5.5,14.4
 2003/02/04,23:45,17.5,46.5,5.4,13.2
 2003/02/05, 0:00,18.7,43,5.3,13
 2003/02/05, 0:15,19,41.5,5.3,13.1
 2003/02/05, 0:30,19.6,40,5.4,13.3
 2003/02/05, 0:45,17.9,46,5.5,13.4
 2003/02/05, 1:00,13.7,54,5.5,12.8
 2003/02/05, 1:15,12.5,58,5.4,12.2
 2003/02/05, 1:30,11.7,60,5.3,11.8
 2003/02/05, 1:45,11.1,61.5,5.3,11.4
 2003/02/05, 2:00,10.8,63,5.3,10.9
 2003/02/05, 2:15,10.4,63.5,5.3,10.6
 2003/02/05, 2:30,10.2,64,5.3,10.2
 2003/02/05, 2:45,10,64,5.4,9.9
 2003/02/05, 3:00,9.7,65,5.4,9.7
 2003/02/05, 3:15,9.6,65,5.3,9.6
 2003/02/05, 3:30,9.4,65,5.3,9.4
 2003/02/05, 3:45,9.2,66,5.3,9.2
 2003/02/05, 4:00,9.1,66,5.3,9
 2003/02/05, 4:15,9,66.5,5.3,8.9
 2003/02/05, 4:30,8.9,67,5.3,8.8
 2003/02/05, 4:45,8.8,67,5.3,8.6
 2003/02/05, 5:00,8.7,67,5.3,8.6
 2003/02/05, 5:15,8.6,67,5.2,8.4
 2003/02/05, 5:30,8.5,67,5.2,8.4
 2003/02/05, 5:45,8.4,67.5,5.2,8.2
 2003/02/05, 6:00,8.4,68,5.1,8.2
 2003/02/05, 6:15,8.2,67.5,5.1,8.1
 2003/02/05, 6:30,8.2,67,5,8
 2003/02/05, 6:45,7.9,66.5,5.1,7.8
 2003/02/05, 7:00,7.7,66,5.2,7.7
 2003/02/05, 7:15,8.9,62.5,5.2,7.7
 2003/02/05, 7:30,15.4,43,5.2,8.4
 2003/02/05, 7:45,16.9,48,5.1,9.4
 2003/02/05, 8:00,17.8,43,5.3,6.3
 2003/02/05, 8:15,15.8,49,5.7,6.4
 2003/02/05, 8:30,13,57,5.7,6.4
 2003/02/05, 8:45,12.5,59,6,6.4
 2003/02/05, 9:00,12.3,59,6.4,6.4
 2003/02/05, 9:15,12.5,58,6.9,6.3
 2003/02/05, 9:30,12.7,58,7.1,6.6
 2003/02/05, 9:45,12.7,57,7.1,6.6
 2003/02/05,10:00,12.5,57,6.9,6.6
 2003/02/05,10:15,11.8,62,6.9,6.6
 2003/02/05,10:30,11.5,63,7,6.6
 2003/02/05,10:45,11.5,62,7.2,6.7
 2003/02/05,11:00,11.7,62,7.1,6.7
 2003/02/05,11:15,12,63.5,7.1,6.7
 2003/02/05,11:30,11.9,62,7.1,6.6
 2003/02/05,11:45,11.9,61.5,7.2,6.7
 2003/02/05,12:00,12.1,62,7.1,6.7
 2003/02/05,12:15,11.9,63,7.1,6.7
 2003/02/05,12:30,12,62,7.1,6.7
 2003/02/05,12:45,11.9,61,7.1,6.7
 2003/02/05,13:00,12.3,64,7,6.8
 2003/02/05,13:15,12.7,63,7.1,6.8
 2003/02/05,13:30,13.6,63,7.2,6.9
 2003/02/05,13:45,13.3,61.5,7.2,7
 2003/02/05,14:00,13.5,61,7.3,7
 2003/02/05,14:15,13.6,61,7.3,7
 2003/02/05,14:30,13.7,61,7.3,7
 2003/02/05,14:45,14.1,59.5,7.3,7
 2003/02/05,15:00,14.5,58,7.4,7
 2003/02/05,15:15,15.1,55,7.4,7.1
 2003/02/05,15:30,15.5,54,7.6,7.1
 2003/02/05,15:45,14.9,54.5,7.7,7.2
 2003/02/05,16:00,15,55,7.6,7.2
 2003/02/05,16:15,14.6,56,7.6,7.1
 2003/02/05,16:30,14.1,58,7.6,7.1
 2003/02/05,16:45,13.7,58,7.4,7.2
 2003/02/05,17:00,13.1,59,7.4,7.2
 2003/02/05,17:15,13.6,58.5,7.3,7.2
 2003/02/05,17:30,13.9,57,7.1,7.2
 2003/02/05,17:45,13.8,57.5,7.1,6.9
 2003/02/05,18:00,13.5,60,7,6.8
 2003/02/05,18:15,13.6,59.5,6.9,6.8
 2003/02/05,18:30,13.6,59,6.9,6.9
 2003/02/05,18:45,13.9,59,6.7,6.9
 2003/02/05,19:00,12.9,52,6.7,6.9
 2003/02/05,19:15,12.9,51.5,6.7,6.9
 2003/02/05,19:30,13.7,53,6.6,6.9
 2003/02/05,19:45,13.9,56,6.6,6.9
 2003/02/05,20:00,14.2,56,6.5,7
 2003/02/05,20:15,14.2,56.5,6.5,7
 2003/02/05,20:30,14.3,59,6.4,7
 2003/02/05,20:45,14.4,59.5,6.5,7
 2003/02/05,21:00,14.2,60,6.5,6.8
 2003/02/05,21:15,14.1,60.5,6.5,6.8
 2003/02/05,21:30,13.6,61,6.4,6.5
 2003/02/05,21:45,13.1,61.5,6.3,6.6
 2003/02/05,22:00,12.8,62,6.3,6.6
 2003/02/05,22:15,12.3,63.5,6.2,6.6
 2003/02/05,22:30,11.9,64,6.2,6.6
 2003/02/05,22:45,11.6,65,6.2,6.6
 2003/02/05,23:00,15.1,53,6.1,6.6
 2003/02/05,23:15,18.8,46,6.1,6.7
 2003/02/05,23:30,19.6,42,6,6.7
 2003/02/05,23:45,20,41,5.9,6.7
 2003/02/06, 0:00,20.4,40,5.9,6.7
 2003/02/06, 0:15,18.8,43,5.9,6.7
 2003/02/06, 0:30,16.5,49,5.8,6.9
 2003/02/06, 0:45,13.8,54.5,5.8,6.9
 2003/02/06, 1:00,12.7,58,5.7,6.9
 2003/02/06, 1:15,12.1,59,5.6,6.9
 2003/02/06, 1:30,11.6,60,5.5,6.9
 2003/02/06, 1:45,11.2,60.5,5.5,6.8
 2003/02/06, 2:00,10.6,57,5.8,6.8
 2003/02/06, 2:15,10.1,58.5,5.8,6.8
 2003/02/06, 2:30,9.8,59,5.7,6.8
 2003/02/06, 2:45,9.6,60,5.7,6.8
 2003/02/06, 3:00,9.4,61,5.7,6.8
 2003/02/06, 3:15,9.2,61,5.6,6.8
 2003/02/06, 3:30,9.1,62,5.5,6.7
 2003/02/06, 3:45,8.9,62,5.3,6.7
 2003/02/06, 4:00,8.8,61,5.3,6.7
 2003/02/06, 4:15,8.6,62,5.2,6.7
 2003/02/06, 4:30,8.6,62,5.3,6.7
 2003/02/06, 4:45,8.4,61,5.3,6.7
 2003/02/06, 5:00,8.2,61,5.1,6.7
 2003/02/06, 5:15,8.1,61,5.1,6.7
 2003/02/06, 5:30,8,61,5.1,6.7
 2003/02/06, 5:45,7.9,61,5,6.7
 2003/02/06, 6:00,7.8,61,5,6.5
 2003/02/06, 6:15,14.4,49,5,7
 2003/02/06, 6:30,16.4,47,4.9,6.8
 2003/02/06, 6:45,16.5,45.5,5.1,6.8
 2003/02/06, 7:00,11.9,57,5,6.7
 2003/02/06, 7:15,10.4,60,4.9,6.7
 2003/02/06, 7:30,9.5,63,5,6.6
 2003/02/06, 7:45,9.9,63,4.9,6.6
 2003/02/06, 8:00,10.4,61,4.9,6.6
 2003/02/06, 8:15,10.7,60,4.9,6.6
 2003/02/06, 8:30,10.8,61,5,6.6
 2003/02/06, 8:45,10.9,62.5,4.9,6.6
 2003/02/06, 9:00,10.8,62,5,6.6
 2003/02/06, 9:15,10.8,63,5.1,6.4
 2003/02/06, 9:30,10.9,63,5,6.3
 2003/02/06, 9:45,11.4,62.5,5,6.3
 2003/02/06,10:00,11.5,63,5.3,6.6
 2003/02/06,10:15,11.9,65.5,5.7,6.8
 2003/02/06,10:30,11.7,60,5.5,6.7
 2003/02/06,10:45,11.8,59.5,5.4,6.8
 2003/02/06,11:00,11.9,59,5.4,6.8
 2003/02/06,11:15,11.6,59,5.6,6.8
 2003/02/06,11:30,11.7,57,5.8,6.8
 2003/02/06,11:45,11.7,56.5,6.1,6.8
 2003/02/06,12:00,12.1,56,6.1,6.8
 2003/02/06,12:15,12.3,56,6.2,6.8
 2003/02/06,12:30,12.2,57,6.2,6.8
 2003/02/06,12:45,12.2,56.5,6.2,6.8
 2003/02/06,13:00,12.3,55,6.3,7.1
 2003/02/06,13:15,12.8,58,6.2,7.1
 2003/02/06,13:30,12.8,58,6.4,7.1
 2003/02/06,13:45,12.8,56,6.3,7.1
 2003/02/06,14:00,12.7,55,6.3,7.1
 2003/02/06,14:15,12.8,54.5,6.3,7.1
 2003/02/06,14:30,12.8,54,6.4,7.1
 2003/02/06,14:45,12.8,54.5,6.2,7.1
 2003/02/06,15:00,12.6,54,6.2,6.5
 2003/02/06,15:15,12.8,55.5,6.3,6.5
 2003/02/06,15:30,12.9,55,6.3,6.5
 2003/02/06,15:45,12.9,55.5,6.2,6.5
 2003/02/06,16:00,13.1,56,6.4,6.5
 2003/02/06,16:15,13.2,56,6.2,6.3
 2003/02/06,16:30,13.2,55,6.4,6.4
 2003/02/06,16:45,13.2,56.5,6.2,6.4
 2003/02/06,17:00,13.1,56,6.2,6.4
 2003/02/06,17:15,13.1,58.5,6.2,6.5
 2003/02/06,17:30,13.2,57,6.1,6.7
 2003/02/06,17:45,13.3,56,6,6.8
 2003/02/06,18:00,13.3,56,5.9,6.8
 2003/02/06,18:15,13.1,56,5.8,6.7
 2003/02/06,18:30,13.3,56,5.7,6.6
 2003/02/06,18:45,13.8,63.5,5.7,6.6
 2003/02/06,19:00,14.4,72,5.5,6.6
 2003/02/06,19:15,14.8,75,5.5,6.7
 2003/02/06,19:30,13.6,63,5.4,6.7
 2003/02/06,19:45,13.9,65.5,5.3,6.7
 2003/02/06,20:00,13.9,63,5.3,6.7
 2003/02/06,20:15,13.8,61,5.2,6.7
 2003/02/06,20:30,13.7,60,5.2,6.7
 2003/02/06,20:45,13.7,59.5,5.1,6.7
 2003/02/06,21:00,13.7,60,5,6.7
 2003/02/06,21:15,13.6,59,5,6.3
 2003/02/06,21:30,13,60,4.9,6.4
 2003/02/06,21:45,12.1,62,4.8,6.4
 2003/02/06,22:00,11.4,63,4.8,6.4
 2003/02/06,22:15,11,63,4.7,6.4
 2003/02/06,22:30,10.6,63,4.6,6.4
 2003/02/06,22:45,10.4,63,4.6,6.1
 2003/02/06,23:00,10.3,63,4.5,6.4
 2003/02/06,23:15,10.1,63,4.4,6.4
 2003/02/06,23:30,9.8,63,4.4,6.4
 2003/02/06,23:45,15.1,48.5,4.3,6.4
 2003/02/07, 0:00,17.2,43,4.3,6.4
 2003/02/07, 0:15,17,45.5,4.2,6.4
 2003/02/07, 0:30,16,48,4.1,6.4
 2003/02/07, 0:45,12.6,55.5,4.1,6.9
 2003/02/07, 1:00,11.2,59,4,6.9
 2003/02/07, 1:15,10.4,60.5,4,6.8
 2003/02/07, 1:30,9.9,61,3.9,6.8
 2003/02/07, 1:45,9.6,61.5,3.8,6.8
 2003/02/07, 2:00,9.1,63,3.8,6.8
 2003/02/07, 2:15,8.8,63,3.7,6.8
 2003/02/07, 2:30,8.6,63,3.6,6.7
 2003/02/07, 2:45,8.4,63.5,3.5,6.7
 2003/02/07, 3:00,8.2,63,3.5,6.7
 2003/02/07, 3:15,8,63.5,3.4,6.7
 2003/02/07, 3:30,7.8,64,3.4,6.6
 2003/02/07, 3:45,7.6,64,3.3,6.6
 2003/02/07, 4:00,7.4,64,3.2,6.6
 2003/02/07, 4:15,7.2,64.5,3.2,6.5
 2003/02/07, 4:30,7.1,65,3.2,6.5
 2003/02/07, 4:45,6.9,65,3.2,6.5
 2003/02/07, 5:00,6.9,65,3.2,6.4
 2003/02/07, 5:15,6.7,65,3.1,6.4
 2003/02/07, 5:30,6.5,66,3.1,6.4
 2003/02/07, 5:45,6.6,66,3,6.3
 2003/02/07, 6:00,12.4,47,3,6.3
 2003/02/07, 6:15,14.5,43.5,3,6.2
 2003/02/07, 6:30,11,54,3,6.2
 2003/02/07, 6:45,14.8,43,3,6.2
 2003/02/07, 7:00,15.8,40,2.9,6
 2003/02/07, 7:15,14,55.5,2.8,6.2
 2003/02/07, 7:30,16.2,49,3,6.2
 2003/02/07, 7:45,16.5,45.5,3.2,6.2
 2003/02/07, 8:00,11.8,52,3.4,6.5
 2003/02/07, 8:15,9.2,50.5,3.5,6.4
 2003/02/07, 8:30,8.4,52,3.6,6.4
 2003/02/07, 8:45,7.8,53,3.8,6.2
 2003/02/07, 9:00,8.1,56,4,6.2
 2003/02/07, 9:15,8.7,59,5,5.7
 2003/02/07, 9:30,9.3,60,5.7,5.8
 2003/02/07, 9:45,9.2,60.5,5.6,5.9
 2003/02/07,10:00,9.1,61,5.6,6.2
 2003/02/07,10:15,8.8,62,5.8,6.2
 2003/02/07,10:30,8.9,64,5.9,6.1
 2003/02/07,10:45,9.8,65,5.9,6.1
 2003/02/07,11:00,11,71,5.9,6.1
 2003/02/07,11:15,12.8,84.5,6.1,6.1
 2003/02/07,11:30,12.1,80,6.1,6.1
 2003/02/07,11:45,11.5,72.5,6.6,6.3
 2003/02/07,12:00,11.6,65,6.7,6.4
 2003/02/07,12:15,12.5,61,6.5,6.4
 2003/02/07,12:30,12.5,60,6.6,6.4
 2003/02/07,12:45,12.7,58.5,6.7,6.4
 2003/02/07,13:00,13,57,6.8,6.3
 2003/02/07,13:15,13.4,54,6.8,6.4
 2003/02/07,13:30,13.7,52,7,6.4
 2003/02/07,13:45,13.9,51.5,7.2,6.4
 2003/02/07,14:00,14.2,50,7.3,6.7
 2003/02/07,14:15,14.6,48,7.3,6.7
 2003/02/07,14:30,14.9,47,7.4,6.7
 2003/02/07,14:45,15.2,46,7.6,6.7
 2003/02/07,15:00,15.6,45,7.6,6.7
 2003/02/07,15:15,15.9,43.5,7.8,6.8
 2003/02/07,15:30,16.1,43,7.7,6.8
 2003/02/07,15:45,16.2,43,8.1,7.2
 2003/02/07,16:00,15.8,42,9.1,7.2
 2003/02/07,16:15,16.1,41,8.7,7.2
 2003/02/07,16:30,16.1,40,8.7,7.2
 2003/02/07,16:45,16,43,8.5,7.2
 2003/02/07,17:00,15.9,45,8.7,7.3
 2003/02/07,17:15,16,48,8.6,7.1
 2003/02/07,17:30,15.8,48,8.7,6.9
 2003/02/07,17:45,15.6,49.5,8.3,7.1
 2003/02/07,18:00,15.6,50,8,7.1
 2003/02/07,18:15,15.5,51,7.9,7.1
 2003/02/07,18:30,15.6,51,7.8,7.1
 2003/02/07,18:45,15.4,51,7.9,7.1
 2003/02/07,19:00,15.3,52,7.8,7
 2003/02/07,19:15,15,49.5,7.6,7
 2003/02/07,19:30,15.4,51,7.4,7
 2003/02/07,19:45,15.4,52,7.3,7.1
 2003/02/07,20:00,15.5,53,7.1,7.1
 2003/02/07,20:15,15.4,54,7.1,6.9
 2003/02/07,20:30,15.2,54,7,6.7
 2003/02/07,20:45,15.1,54.5,7,6.7
 2003/02/07,21:00,14.8,55,6.8,6.7
 2003/02/07,21:15,14.4,56,6.8,6.7
 2003/02/07,21:30,14.3,57,6.7,6.4
 2003/02/07,21:45,14.2,56,6.7,6.7
 2003/02/07,22:00,14,56,6.6,6.7
 2003/02/07,22:15,13.4,57.5,6.5,6.7
 2003/02/07,22:30,13,58,6.4,6.7
 2003/02/07,22:45,12.6,59,6.4,6.7
 2003/02/07,23:00,12.3,59,6.3,6.7
 2003/02/07,23:15,11.9,60,6.3,6.7
 2003/02/07,23:30,11.5,59,6.4,6.5
 2003/02/07,23:45,11.8,58.5,6.2,6.5
 2003/02/08, 0:00,14.7,45,6.1,6.5
 2003/02/08, 0:15,18.4,40,6.1,6.6
 2003/02/08, 0:30,19.2,39,6,6.8
 2003/02/08, 0:45,14.1,52,6,6.9
 2003/02/08, 1:00,12.6,54,5.9,6.9
 2003/02/08, 1:15,11.9,56.5,5.8,6.8
 2003/02/08, 1:30,11.4,58,5.8,6.8
 2003/02/08, 1:45,11,58.5,5.7,6.8
 2003/02/08, 2:00,10.7,59,5.6,6.8
 2003/02/08, 2:15,10.4,59.5,5.5,6.8
 2003/02/08, 2:30,10.3,60,5.4,6.8
 2003/02/08, 2:45,10.1,60,5.3,6.8
 2003/02/08, 3:00,9.8,60,5.3,6.8
 2003/02/08, 3:15,9.6,61,5.2,6.8
 2003/02/08, 3:30,9.4,61,5.1,6.8